Location: Unspecified
(29.9680°N, 0.0000°E)
Time: 23:24:36
(UTC+00:00)

A-11 Canister half - Pass Details

Date: 19 June 2019
Orbit: 1526 x 1683 km, 47.3° (Epoch: 21 July)

Event Time Altitude Azimuth Distance (km) Brightness Sun altitude
Rises 07:57:55 0° 291° (WNW) 4,696 11.1 35.9°
Reaches altitude 10° 08:01:43 10° 304° (WNW) 3,701 10.7 36.7°
Maximum altitude 08:09:13 26° 358° (N) 2,635 10.6 38.3°
Drops below altitude 10° 08:16:44 10° 53° (NE) 3,704 11.9 39.9°
Sets 08:20:32 0° 65° (ENE) 4,700 12.3 40.7°
